Retour au catalogue

STARLINK-11623

ActifCommunicationsVLEO
NORAD 63276·PAYLOAD·🇺🇸 United States

Lancé Mar 15, 2025 depuis Cape Canaveral Space Force Station

Loading…

Prochains Passages (prochaines 24 heures)

TLE

FraisSource: CelesTrak SupGP

Époque: Sep 15, 2026, 02:15 UTC

1 63276C 25053M   26258.09423611 -.00101640  00000+0 -78877-3 0  2589
2 63276  43.0011  50.8959 0001773 266.6154 112.9827 15.70907296    16

Suivez STARLINK-11623 en temps réel avec AllMySat

Download on the App Store